This demonstration page uses our WeatherBlox Daily Observations layout. Learn more.

Left ArrowRight Arrow

Hourly Observations for December 9, 2015

Temp ( °F °C ) Dew Point ( °F °C ) Humidity (%) Winds ( mph kmh ) Pressure ( in mb ) Visibility ( mi km ) Precip ( " mm )
12:15 am 00:15 Clear with Mist and Fog 36 2 36 2 100 100 Calm 30.15 1021 5 8 0.00 0.00
12:35 am 00:35 Clear with Mist and Fog 34 1 34 1 100 100 Calm 30.15 1021 5 8 0.00 0.00
12:55 am 00:55 Clear with Mist and Fog 36 2 36 2 100 100 Calm 30.15 1021 5 8 0.00 0.00
1:15 am 01:15 Clear 36 2 36 2 100 100 Calm 30.15 1021 7 11 0.00 0.00
1:35 am 01:35 Clear with Mist and Fog 34 1 34 1 100 100 Calm 30.12 1020 3 5 0.00 0.00
1:55 am 01:55 Clear with Mist and Fog 34 1 34 1 100 100 Calm 30.12 1020 5 8 0.00 0.00
2:15 am 02:15 Clear 34 1 34 1 100 100 Calm 30.15 1021 7 11 0.00 0.00
2:35 am 02:35 Clear with Mist and Fog 36 2 36 2 100 100 Calm 30.15 1021 5 8 0.00 0.00
2:55 am 02:55 Clear with Mist and Fog 34 1 34 1 100 100 Calm 30.15 1021 5 8 0.00 0.00
3:15 am 03:15 Clear with Mist and Fog 32 0 32 0 100 100 Calm 30.15 1021 4 6 0.00 0.00
3:35 am 03:35 Clear with Mist and Fog 34 1 34 1 100 100 Calm 30.12 1020 4 6 0.00 0.00
3:55 am 03:55 Clear with Mist and Fog 32 0 32 0 100 100 Calm 30.12 1020 3 5 0.00 0.00
4:15 am 04:15 Clear with Mist and Fog 32 0 32 0 100 100 N 3 6 30.12 1020 3 5 0.00 0.00
4:35 am 04:35 Clear with Mist and Fog 34 1 34 1 100 100 Calm 30.12 1020 3 5 0.00 0.00
4:55 am 04:55 Clear with Mist and Fog 32 0 32 0 100 100 Calm 30.12 1020 4 6 0.00 0.00
5:15 am 05:15 Clear with Mist and Fog 32 0 32 0 100 100 N 3 6 30.12 1020 4 6 0.00 0.00
5:35 am 05:35 Clear with Mist and Fog 32 0 32 0 100 100 Calm 30.15 1021 3 5 0.00 0.00
5:55 am 05:55 Clear with Mist and Fog 34 1 34 1 100 100 Calm 30.12 1020 3 5 0.00 0.00
6:15 am 06:15 Clear with Mist and Fog 34 1 34 1 100 100 Calm 30.15 1021 3 5 0.00 0.00
6:35 am 06:35 Mostly Cloudy with Mist and Fog 34 1 34 1 100 100 Calm 30.15 1021 3 5 0.00 0.00
6:50 am 06:50 Cloudy with Mist and Fog 34 1 34 1 100 100 Calm 30.15 1021 3 5 0.00 0.00
7:15 am 07:15 Cloudy with Mist and Fog 34 1 34 1 100 100 Calm 30.15 1021 3 5 0.00 0.00
7:35 am 07:35 Cloudy with Mist and Fog 36 2 36 2 100 100 Calm 30.15 1021 2 3 0.00 0.00
7:55 am 07:55 Cloudy with Mist and Fog 36 2 36 2 100 100 Calm 30.15 1021 2 3 0.00 0.00
8:15 am 08:15 Cloudy with Mist and Fog 36 2 36 2 100 100 Calm 30.15 1021 3 4 0.00 0.00
8:35 am 08:35 Cloudy with Mist and Fog 36 2 36 2 100 100 Calm 30.15 1021 3 4 0.00 0.00
8:55 am 08:55 Cloudy with Mist and Fog 37 3 37 3 100 100 Calm 30.15 1021 2 3 0.00 0.00
9:15 am 09:15 Cloudy with Mist and Fog 37 3 37 3 100 100 Calm 30.15 1021 2 3 0.00 0.00
9:35 am 09:35 Cloudy with Fog 37 3 37 3 100 100 Calm 30.15 1021 1 1 0.00 0.00
9:55 am 09:55 Cloudy with Fog 37 3 37 3 100 100 Calm 30.15 1021 0 0 0.00 0.00
10:15 am 10:15 Cloudy with Fog 39 4 39 4 100 100 Calm 30.15 1021 0 0 0.00 0.00
10:35 am 10:35 Cloudy with Fog 39 4 39 4 100 100 Calm 30.15 1021 5 8 0.00 0.00
10:55 am 10:55 Cloudy with Fog 41 5 41 5 100 100 S 5 7 30.12 1020 5 8 0.00 0.00
11:15 am 11:15 Cloudy with Fog 41 5 41 5 100 100 S 5 7 30.12 1020 5 8 0.00 0.00
11:35 am 11:35 Cloudy with Fog 41 5 41 5 100 100 SSW 6 9 30.09 1019 1 1 0.00 0.00
11:55 am 11:55 Cloudy with Mist and Fog 41 5 41 5 100 100 SSW 5 7 30.09 1019 1 1 0.00 0.00
12:15 pm 12:15 Cloudy with Mist and Fog 41 5 41 5 100 100 S 5 7 30.09 1019 1 2 0.00 0.00
12:35 pm 12:35 Cloudy with Mist and Fog 41 5 41 5 100 100 S 5 7 30.06 1018 1 2 0.00 0.00
12:55 pm 12:55 Cloudy with Mist and Fog 43 6 43 6 100 100 SSE 3 6 30.06 1018 3 4 0.00 0.00
1:15 pm 13:15 Cloudy with Mist and Fog 43 6 43 6 100 100 S 6 9 30.06 1018 2 3 0.00 0.00
1:35 pm 13:35 Cloudy with Mist and Fog 43 6 43 6 100 100 S 8 13 30.03 1017 2 3 0.00 0.00
1:55 pm 13:55 Cloudy with Mist and Fog 43 6 43 6 100 100 S 9 15 30.03 1017 3 4 0.00 0.00
2:15 pm 14:15 Cloudy with Mist and Fog 43 6 43 6 100 100 S 8 13 30.03 1017 2 3 0.00 0.00
2:35 pm 14:35 Cloudy with Mist and Fog 43 6 43 6 100 100 S 6 9 30.03 1017 1 1 0.00 0.00
2:55 pm 14:55 Cloudy with Mist and Fog 43 6 43 6 100 100 S 5 7 30.03 1017 1 1 0.00 0.00
3:15 pm 15:15 Cloudy with Mist and Fog 45 7 45 7 100 100 S 3 6 30.03 1017 1 1 0.00 0.00
3:35 pm 15:35 Cloudy with Mist and Fog 45 7 45 7 100 100 S 3 6 30.03 1017 1 1 0.00 0.00
3:50 pm 15:50 Cloudy with Mist and Fog 45 7 45 7 100 100 SSE 3 6 30.03 1017 1 1 0.00 0.00
4:15 pm 16:15 Cloudy with Mist and Fog 45 7 45 7 100 100 S 5 7 30.03 1017 1 2 0.00 0.00
4:35 pm 16:35 Cloudy with Mist and Fog 45 7 45 7 100 100 S 8 13 30.03 1017 2 2 0.00 0.00
4:55 pm 16:55 Cloudy with Mist and Fog 45 7 45 7 100 100 SSE 3 6 30.00 1016 3 5 0.00 0.00
5:15 pm 17:15 Cloudy with Mist and Fog 45 7 45 7 100 100 SW 3 6 30.00 1016 4 6 0.00 0.00
5:35 pm 17:35 Cloudy with Mist and Fog 45 7 45 7 100 100 S 6 9 30.00 1016 4 6 0.00 0.00
5:55 pm 17:55 Partly Cloudy with Mist and Fog 45 7 45 7 100 100 S 8 13 30.00 1016 5 8 0.00 0.00
6:15 pm 18:15 Clear with Mist and Fog 45 7 45 7 100 100 S 7 11 30.00 1016 5 8 0.00 0.00
6:35 pm 18:35 Clear with Mist and Fog 45 7 45 7 100 100 S 5 7 30.00 1016 5 8 0.00 0.00
6:55 pm 18:55 Clear with Mist and Fog 45 7 45 7 100 100 S 3 6 30.00 1016 5 8 0.00 0.00
7:15 pm 19:15 Clear with Mist and Fog 45 7 45 7 100 100 SSW 3 6 30.00 1016 4 6 0.00 0.00
7:35 pm 19:35 Partly Cloudy with Mist and Fog 43 6 43 6 100 100 Calm 30.00 1016 2 3 0.00 0.00
7:55 pm 19:55 Partly Cloudy with Mist and Fog 43 6 43 6 100 100 Calm 30.00 1016 1 2 0.00 0.00
8:15 pm 20:15 Partly Cloudy with Mist and Fog 43 6 43 6 100 100 S 3 6 30.00 1016 3 4 0.00 0.00
8:35 pm 20:35 Partly Cloudy with Mist and Fog 43 6 43 6 100 100 S 8 13 30.00 1016 3 5 0.00 0.00
8:55 pm 20:55 Cloudy with Fog 43 6 43 6 100 100 SSW 6 9 30.00 1016 0 0 0.00 0.00
9:15 pm 21:15 Cloudy with Fog 43 6 43 6 100 100 S 3 6 30.00 1016 0 0 0.00 0.00
9:35 pm 21:35 Cloudy with Fog 43 6 43 6 100 100 Calm 30.00 1016 0 0 0.00 0.00
9:55 pm 21:55 Cloudy with Fog 43 6 43 6 100 100 S 3 6 30.00 1016 0 0 0.00 0.00
10:15 pm 22:15 Cloudy with Fog 43 6 43 6 100 100 Calm 30.00 1016 0 0 0.00 0.00
10:35 pm 22:35 Cloudy with Fog 43 6 43 6 100 100 Calm 30.00 1016 0 0 0.00 0.00
10:55 pm 22:55 Cloudy with Fog 43 6 43 6 100 100 Calm 30.00 1016 0 0 0.00 0.00
11:15 pm 23:15 Cloudy with Light Rain 43 6 43 6 100 100 Calm 30.00 1016 0 0 0.00 0.00
11:35 pm 23:35 Cloudy with Light Rain 43 6 43 6 100 100 Calm 30.00 1016 1 1 0.00 0.00
11:55 pm 23:55 Cloudy with Rain 43 6 43 6 100 100 Calm 30.00 1016 1 2 0.00 0.00

Powered by AerisWeather